Home > Weather > Mashhad > Past weeks

Flag for Iran Past Weather in Mashhad, Iran — Yesterday and Last 2 Weeks

Now
72 °F

Sunny.


Feels Like: 75 °F
Forecast: 62 / 91 °F
Wind: 5 mph from West

Location: Mashhad Airport

Current Time: Aug 29, 2016 at 8:31:19 AM

Latest Report: Aug 29, 2016 at 7:30 AM


Visibility: 10 mi

Pressure: 30.07 "Hg (26.84 "Hg at 981m altitude)

Humidity: 23%

Dew Point: 32 °F

Location of MashhadLocation

Past Weather in Mashhad — Graph

°F

Mashhad Temperature Yesterday

Maximum temperature yesterday: 91 °F (at 2:00 PM)
Minimum temperature yesterday: 63 °F (at 3:00 AM)
Average temperature yesterday: 78 °F

High & Low Weather Summary for the Past Weeks

 TemperatureHumidityPressure
High93 °F (Aug 14, 2:00 PM)40% (Aug 20, 6:00 AM)30.12 "Hg (Aug 20, 6:00 AM)
Low59 °F (Aug 25, 5:30 AM)4% (Aug 27, 2:00 PM)29.86 "Hg (Aug 17, 4:30 PM)
Average78 °F16%30.00 "Hg
* Reported Aug 14 6:30 AM — Aug 29 7:00 AM, Mashhad, Weather by CustomWeather, © 2016

Note: Actual official high and low records may vary slightly from our data, if they occured in-between our weather recording intervals... More about our weather records

Advertising

Mashhad Weather History for the Previous 24 Hours

Scroll right to see more
 ConditionsComfort  
Time TempWeatherWind HumidityBarometerVisibility
7:00 AM
Mon, Aug 29
68 °FClear.5 mph26%30.07 "Hg10 mi
6:30 AM64 °FClear.5 mph30%30.07 "Hg10 mi
6:00 AM64 °FClear.5 mph28%30.07 "Hg10 mi
5:30 AM63 °FClear.5 mph32%30.07 "Hg10 mi
5:00 AM63 °FClear.5 mph30%30.07 "Hg10 mi
4:30 AM66 °FClear.5 mph22%30.07 "Hg10 mi
4:00 AM66 °FClear.5 mph24%30.07 "Hg10 mi
3:30 AM68 °FClear.5 mph24%30.07 "Hg10 mi
3:00 AM68 °FClear.7 mph23%30.07 "Hg10 mi
2:30 AM68 °FClear.5 mph21%30.07 "Hg10 mi
2:00 AM70 °FClear.5 mph20%30.07 "Hg10 mi
1:30 AM70 °FClear.5 mph18%30.07 "Hg10 mi
1:00 AM73 °FClear.5 mph16%30.09 "Hg10 mi
12:30 AM73 °FClear.7 mph15%30.09 "Hg10 mi
12:00 AM73 °FClear.9 mph15%30.09 "Hg10 mi
11:30 PM
Sun, Aug 28
75 °FClear.7 mph13%30.09 "Hg10 mi
11:00 PM75 °FClear.9 mph13%30.09 "Hg10 mi
10:30 PM75 °FClear.9 mph13%30.09 "Hg10 mi
10:00 PM77 °FClear.9 mph11%30.09 "Hg10 mi
9:30 PM79 °FClear.7 mph10%30.09 "Hg10 mi
9:00 PM79 °FClear.5 mph10%30.07 "Hg10 mi
8:30 PM79 °FSunny.9 mph10%30.07 "Hg10 mi
8:00 PM81 °FSunny.14 mph9%30.04 "Hg10 mi
7:30 PM81 °FSunny.9 mph10%30.04 "Hg10 mi
7:00 PM82 °FSunny.14 mph9%30.04 "Hg10 mi
6:30 PM86 °FSunny.14 mph9%30.04 "Hg10 mi
5:30 PM90 °FSunny.14 mph7%30.04 "Hg10 mi
5:00 PM90 °FSunny.7 mph6%30.04 "Hg10 mi
4:30 PM91 °FSunny.16 mph7%30.04 "Hg10 mi
3:30 PM91 °FSunny.7 mph6%30.04 "Hg10 mi
3:00 PM91 °FSunny.5 mph5%30.04 "Hg10 mi
2:30 PM91 °FSunny.12 mph6%30.04 "Hg10 mi
2:00 PM91 °FSunny.7 mph6%30.07 "Hg10 mi
1:30 PM90 °FSunny.5 mph6%30.07 "Hg10 mi
1:00 PM90 °FSunny.5 mph6%30.07 "Hg10 mi
12:30 PM88 °FSunny.2 mph6%30.09 "Hg10 mi
12:00 PM88 °FSunny.7 mph7%30.09 "Hg10 mi
11:30 AM88 °FSunny.7 mph7%30.09 "Hg10 mi
11:00 AM86 °FSunny.7 mph7%30.09 "Hg10 mi
10:30 AM84 °FSunny.12 mph8%30.09 "Hg10 mi
10:00 AM82 °FSunny.7 mph11%30.09 "Hg10 mi
9:30 AM81 °FSunny.5 mph13%30.12 "Hg10 mi
9:00 AM79 °FSunny.7 mph10%30.09 "Hg10 mi
8:30 AM79 °FSunny.14 mph11%30.09 "Hg10 mi
8:00 AM75 °FSunny.12 mph13%30.09 "Hg10 mi
Weather by CustomWeather, © 2016

See weather overviewHow to use our weather pages